SCP
0 0 0 0 0 0 0 0 0 0 0 0 0 0 0 0 0 0 0 0 0 0 0 0 0 0 0 0 0 0 0 0 0 0 0 0 0 0 0 0 0 0 0 0
0 0 0 0 0 0 0 0 0 0 0 0 0 0 0 0 0 0 0 0 0 0 0 0 0 0 0 0 0 0 0 0 0 0 0 0 0 0 0 0 0 0 0 0
0 -0 0 0 0 0 0 0 0 0 0 0 0 0 0 0 0 0 0 0 0 0 0 0 0 0 0 0 0 0 0 0 0 0 0 0 0 0 0 0 0 0 0 0
0 -0 -0 -0 0 0 0 0 0 0 0 0 0 0 0 0 0 0 0 0 0 0 0 0 0 0 0 0 0 0 0 0 0 0 0 0 0 0 0 0 0 0 0 0
-0 0 0 0 0 0 0 0 0 0 0 0 0 0 -0 0 0 0 0 0 0 0 0 0 0 0 0 0 0 0 0 0 0 0 0 0 0 0 0 0 0 0 0 0
0 0 0 0 0 0 0 0 0 0 0 0 0 0 -0 0 0 0 0 0 0 0 0 0 0 0 0 0 0 0 0 0 0 0 0 0 0 0 0 0 0 0 0 0
-0 0 0 0 0 0 0 0 0 0 0 0 0 0 0 0 0 0 0 0 0 0 0 0 0 0 0 0 0 0 0 0 0 0 0 0 0 0 0 0 0 0 0 0
0 0 0 0 0 0 0 0 0 0 0 0 0 0 -0 0 0 0 0 0 0 0 0 0 0 0 0 0 0 0 0 0 0 0 0 0 0 0 0 0 0 0 0 0
0 0 0 0 0 0 0 0 0 0 0 0 0 0 0 0 0 0 0 0 0 0 0 0 0 0 0 0 0 0 0 0 0 0 0 0 0 0 0 0 0 0 0 0
0 0 0 0 0 0 0 0 0 0 0 0 0 0 0 0 0 0 0 0 0 0 0 0 0 0 0 0 0 0 0 0 0 0 0 0 0 0 0 0 0 0 0 0
0 0 0 0 0 0 0 0 0 0 0 0 0 0 0 0 0 0 0 0 0 0 0 0 0 0 0 0 0 0 0 0 0 0 0 0 0 0 0 0 0 0 0 0
0 0 0 0 0 0 0 0 0 0 0 0 0 0 0 0 0 0 0 0 0 0 0 0 0 0 0 0 0 0 0 0 0 0 0 0 0 0 0 0 0 0 0 0
0 0 0 0 0 0 0 0 0 0 0 0 0 0 0 0 0 0 0 0 0 0 0 0 0 0 0 0 0 0 0 0 0 0 0 0 0 0 0 0 0 0 0 0
0 0 0 0 0 0 0 0 0 0 0 0 0 0 0 0 0 0 0 0 0 0 0 0 0 0 0 0 0 0 0 0 0 0 0 0 0 0 0 0 0 0 0 0
0 0 0 0 0 0 0 0 0 0 0 0 0 0 0 0 0 0 0 0 0 0 0 0 0 0 0 0 0 0 0 0 0 0 0 0 0 0 0 0 0 0 0 0
0 0 0 0 0 0 0 0 0 0 0 0 0 0 0 0 0 0 0 0 0 0 0 0 0 0 0 0 0 0 0 0 0 0 0 0 0 0 0 0 0 0 0 0
0 0 0 0 0 0 0 0 0 0 0 0 0 0 0 0 0 0 0 0 0 0 0 0 0 0 0 0 0 0 0 0 0 0 0 0 0 0 0 0 0 0 0 0
0 0 0 0 0 0 0 0 0 0 0 0 0 0 0 0 0 0 0 0 0 0 0 0 0 0 0 0 0 0 0 0 0 0 0 0 0 0 0 0 0 0 0 0
0 0 0 0 0 0 0 0 0 0 0 0 0 0 0 0 0 0 0 0 0 0 0 0 0 0 0 0 0 0 0 0 0 0 0 0 0 0 0 0 0 0 0 0
0 0 0 0 0 0 0 0 0 0 0 0 0 0 0 0 0 0 0 0 0 0 0 0 0 0 0 0 0 0 0 0 0 0 0 0 0 0 0 0 0 0 0 0
0 0 0 0 0 0 0 0 0 0 0 0 0 0 0 0 0 0 0 0 0 0 0 0 0 0 0 0 0 0 0 0 0 0 0 0 0 0 0 0 0 0 0 0
0 0 0 0 0 0 0 0 0 0 0 0 0 0 0 0 0 0 0 0 0 0 0 0 0 0 0 0 0 0 0 0 0 0 0 0 0 0 0 0 0 0 0 0
0 0 0 0 0 0 0 0 0 0 0 0 0 0 0 0 0 0 0 0 0 0 0 0 0 0 0 0 0 0 0 0 0 0 0 0 0 0 0 0 0 0 0 0
0 0 0 0 0 0 0 0 0 0 0 0 0 0 0 0 0 0 0 0 0 0 0 0 0 0 0 0 0 0 0 0 0 0 0 0 0 0 0 0 0 0 0 0
0 0 0 0 0 0 0 0 0 0 0 0 0 0 0 0 0 0 0 0 0 0 0 0 0 0 0 0 0 0 0 0 0 0 0 0 0 0 0 0 0 0 0 0
0 0 0 0 0 0 0 0 0 0 0 0 0 0 0 0 0 0 0 0 0 0 0 0 0 0 0 0 0 0 0 0 0 0 0 0 0 0 0 0 0 0 0 0
Wind_Speed_500mb
11 12 6 5 4 5 3 3 5 3 6 7 8 13 20 21 19 24 28 27 23 21 21 26 29 34 37 38 35 39 41 39 35 31 31 33 34 30 28 25 24 22 21 23
12 7 9 5 7 6 9 3 7 8 8 5 10 24 22 22 20 30 31 27 23 21 21 24 27 28 29 30 33 36 39 39 32 26 25 28 29 29 27 26 25 23 23 24
10 3 11 5 11 9 7 6 7 6 15 4 15 15 10 9 18 23 23 23 20 20 21 21 20 18 17 17 21 29 35 37 32 25 24 26 27 27 24 22 22 24 25 25
10 13 8 10 9 7 2 7 5 7 9 6 11 10 14 10 14 8 20 22 22 20 19 18 16 14 12 11 16 25 33 35 32 26 24 25 25 26 26 25 26 27 27 28
5 11 12 13 3 3 3 7 5 5 7 7 11 7 16 11 13 15 31 35 30 25 20 17 14 13 11 9 11 18 26 31 28 26 26 26 26 28 29 30 30 30 30 31
3 4 7 2 3 4 3 3 11 7 7 6 7 8 13 7 10 10 13 46 39 31 24 19 16 14 14 12 12 17 24 28 29 29 28 27 28 29 29 30 31 32 34 37
11 6 6 10 4 4 10 11 7 11 8 10 5 4 21 11 14 12 24 31 39 32 29 24 21 18 17 18 19 20 22 25 27 28 28 28 27 26 27 29 31 34 37 39
7 13 9 15 7 2 8 9 9 10 5 10 5 11 11 8 15 25 28 30 35 35 30 26 23 21 19 18 20 23 24 25 25 24 22 22 22 22 25 26 29 33 36 39
6 8 2 5 3 4 4 5 6 12 2 7 5 15 20 4 12 16 19 20 34 34 32 28 26 25 23 23 23 22 21 20 19 17 17 17 20 23 26 29 33 35 38 41
3 7 4 5 2 10 7 5 7 6 4 10 10 11 12 11 12 13 14 25 30 33 35 35 34 32 30 27 23 20 18 18 17 17 16 17 20 25 29 33 37 41 44 47
8 7 9 3 3 9 4 4 6 6 7 8 6 11 14 13 8 13 28 29 35 39 43 42 41 39 37 34 29 24 20 19 17 16 17 20 25 31 36 40 43 46 47 49
1 7 5 14 1 4 7 10 9 8 12 7 3 17 1 10 14 21 30 28 32 40 50 52 50 49 47 41 35 30 25 21 20 20 23 27 33 38 41 44 46 48 48 48
6 3 7 15 5 7 7 7 7 5 3 14 4 15 6 10 13 21 32 60 45 59 58 61 61 58 52 45 39 34 28 24 24 26 30 33 38 41 43 44 46 46 47 45
4 4 14 14 14 6 5 6 9 10 5 14 16 50 28 37 14 52 72 75 63 53 55 53 60 65 58 49 44 38 33 29 30 33 34 35 39 41 44 45 45 47 48 51
6 9 3 9 12 5 10 25 13 20 24 11 57 12 40 37 30 63 71 61 66 65 60 54 54 61 55 50 45 41 37 34 34 34 36 38 41 44 47 46 46 47 47 51
5 5 5 11 9 3 11 31 25 23 28 21 39 45 41 45 31 48 62 53 59 64 58 55 50 52 50 48 46 44 44 36 39 39 40 40 42 46 46 46 49 53 57 60
3 7 6 11 9 11 15 15 10 6 8 11 10 17 10 27 45 58 59 57 59 63 55 53 40 39 44 42 39 45 46 44 43 44 44 46 46 48 51 56 59 61 63 65
10 8 4 7 8 2 12 6 11 16 17 15 19 25 33 46 57 52 57 58 76 85 52 40 30 33 41 38 36 34 36 40 43 45 49 47 47 51 54 59 60 61 62 64
7 8 3 1 4 15 13 5 5 6 12 7 8 19 41 58 56 44 55 71 83 78 44 36 39 35 38 38 37 40 43 45 48 47 46 44 46 52 56 61 61 61 65 66
3 3 7 6 4 9 10 1 1 5 8 15 15 32 44 52 25 29 73 86 82 55 36 39 40 40 40 39 44 53 53 49 45 43 44 45 47 52 57 60 64 67 69 71
7 3 14 7 8 17 16 13 11 8 12 43 45 45 45 17 40 77 86 84 73 60 51 54 48 46 49 54 53 54 50 49 42 42 45 49 52 57 62 66 68 70 72 75
12 12 8 3 1 17 2 2 5 16 41 44 47 48 52 61 70 75 81 82 78 73 76 72 61 60 57 54 51 54 52 44 44 49 55 58 60 63 67 68 71 73 75 80
5 12 7 18 14 2 13 19 27 34 35 42 51 63 65 68 75 77 81 84 86 83 85 77 77 71 64 59 56 57 56 45 49 54 58 61 65 68 68 71 74 77 78 80
8 11 6 6 6 22 27 33 41 50 55 60 62 67 71 75 78 79 82 80 85 87 83 78 69 70 73 73 60 58 53 47 50 57 61 66 70 74 76 80 82 80 80 80
7 5 5 10 14 23 35 47 58 62 68 76 77 75 78 79 83 79 80 77 81 85 84 79 70 68 76 73 62 54 48 45 51 58 67 71 74 76 78 80 81 82 83 80
5 3 2 1 19 11 27 51 66 69 72 75 75 79 81 84 86 89 87 80 80 86 83 79 82 77 68 67 62 53 48 49 53 62 70 75 80 81 83 86 85 81 83 80
Wind_Direction_500mb
18 66 59 21 351 268 274 298 296 320 29 343 268 280 274 269 257 238 231 229 230 237 248 260 268 271 271 265 254 242 237 240 247 259 255 251 250 252 254 259 268 277 285 292
23 59 343 294 18 66 38 356 308 288 23 353 354 282 257 243 241 237 235 229 237 253 266 278 285 285 278 267 248 233 228 233 244 254 257 255 254 253 257 263 268 266 278 285
103 342 321 70 32 32 45 15 352 291 330 72 330 288 304 266 240 242 237 237 243 262 278 286 290 292 287 269 245 229 222 227 233 242 254 256 254 255 257 261 259 265 276 285
75 331 23 53 66 14 5 348 319 342 33 272 18 282 298 329 296 268 241 238 243 257 271 281 281 286 288 271 240 226 220 220 225 236 251 254 252 254 257 260 262 267 273 281
276 5 19 54 328 347 249 32 39 66 81 36 353 64 275 359 310 266 237 233 236 242 251 260 268 267 271 261 241 225 217 218 227 241 251 253 255 258 261 266 269 269 275 282
94 38 47 7 347 20 357 45 36 55 92 19 230 112 286 255 222 276 262 229 228 229 237 247 256 256 247 243 229 221 218 222 231 242 251 258 262 265 269 272 274 277 280 284
353 15 2 27 340 357 53 48 339 353 7 222 348 41 243 257 243 253 285 261 229 225 228 235 242 243 239 231 228 223 222 226 233 243 252 260 263 265 269 273 278 281 284 286
92 333 14 356 50 336 37 126 149 239 268 276 353 241 248 223 311 295 283 276 233 230 235 242 246 243 235 227 224 226 230 235 241 250 256 264 273 278 281 283 284 288 290 293
68 305 38 39 356 72 278 34 144 98 95 35 272 294 297 319 303 288 285 263 231 234 239 246 248 244 236 227 221 219 221 226 229 236 248 261 273 281 286 290 292 293 295 297
170 351 279 290 115 39 137 152 30 9 332 307 292 277 240 327 312 314 286 252 245 245 248 251 248 240 232 225 221 220 221 227 235 246 258 273 281 288 292 294 296 297 297 297
133 98 287 28 191 186 25 338 40 118 140 184 283 257 213 221 233 301 309 285 271 262 259 258 254 246 239 235 232 233 240 244 250 262 276 287 295 298 299 298 298 298 298 298
19 128 268 230 352 245 220 218 166 123 269 227 175 272 79 239 263 291 317 335 318 281 270 260 252 244 240 239 242 248 254 254 262 277 285 291 295 298 299 299 299 300 300 300
178 320 358 338 353 345 243 211 135 120 77 209 127 263 255 266 295 310 305 318 314 311 297 269 251 246 243 242 244 247 250 256 267 277 282 290 296 300 302 302 302 301 301 301
164 189 179 205 214 124 258 249 184 137 157 279 213 275 296 295 320 315 315 315 316 312 306 293 256 249 243 242 242 241 245 255 270 281 287 292 296 301 304 303 303 304 306 308
132 212 258 258 240 177 239 258 201 198 236 217 277 255 281 292 305 301 308 318 318 314 309 295 273 251 243 240 238 241 244 257 278 288 292 297 298 298 297 299 301 302 304 304
23 272 73 298 346 274 265 264 252 240 255 259 269 278 282 286 309 313 317 322 318 317 315 308 292 252 241 242 245 247 249 264 283 290 293 295 294 287 288 296 299 301 302 301
115 120 59 265 321 327 302 233 208 222 223 179 230 248 329 320 322 322 318 319 315 312 304 304 294 255 246 248 255 255 255 263 276 283 291 295 292 287 290 295 298 299 300 300
140 97 109 265 7 84 246 190 202 200 248 224 283 285 303 302 314 319 321 323 325 315 293 295 299 261 245 256 250 253 259 270 278 282 288 293 292 291 292 295 297 299 299 300
175 113 339 210 225 300 283 159 173 190 279 12 241 303 330 332 322 319 326 320 317 305 280 287 285 270 251 250 259 273 278 279 282 290 295 297 292 288 288 292 297 298 299 300
100 4 135 66 135 261 245 102 19 156 274 20 332 340 340 341 324 311 320 315 315 294 292 294 288 267 258 270 281 282 279 278 282 293 294 293 292 291 291 294 295 298 299 299
117 177 226 198 260 281 256 275 267 76 315 341 344 333 324 304 293 304 317 320 316 288 287 295 284 270 278 288 285 276 275 275 287 289 290 291 292 293 294 295 296 298 299 298
170 163 207 100 73 282 305 66 110 332 337 339 331 325 318 314 314 315 316 312 310 303 288 285 271 274 284 290 279 274 272 280 285 288 290 294 297 298 298 298 298 296 296 296
280 199 185 187 217 45 10 353 0 358 346 345 345 347 343 337 336 334 329 322 312 309 304 301 278 274 281 286 279 273 275 281 286 289 294 298 300 301 301 299 298 297 297 296
245 201 222 48 323 352 35 25 12 359 351 345 340 335 333 331 330 329 330 331 325 314 307 303 300 283 280 282 278 268 274 280 286 290 295 301 303 304 303 302 301 299 297 297
230 154 197 262 346 348 13 1 349 343 341 339 334 329 325 325 323 325 319 324 321 322 317 307 301 296 284 279 278 268 273 279 285 289 292 296 301 302 300 297 295 295 295 296
258 273 174 329 359 340 323 339 343 337 333 330 323 319 320 321 321 323 322 322 314 314 312 313 308 298 294 285 279 271 274 277 282 288 294 298 301 301 298 298 297 295 296 296
Wind_Speed_850mb
11 12 6 5 4 5 3 3 5 3 6 7 8 13 20 21 19 24 28 27 23 21 21 26 29 34 37 38 35 39 41 39 35 31 31 33 34 30 28 25 24 22 21 23
12 7 9 5 7 6 9 3 7 8 8 5 10 24 22 22 20 30 31 27 23 21 21 24 27 28 29 30 33 36 39 39 32 26 25 28 29 29 27 26 25 23 23 24
10 3 11 5 11 9 7 6 7 6 15 4 15 15 10 9 18 23 23 23 20 20 21 21 20 18 17 17 21 29 35 37 32 25 24 26 27 27 24 22 22 24 25 25
10 13 8 10 9 7 2 7 5 7 9 6 11 10 14 10 14 8 20 22 22 20 19 18 16 14 12 11 16 25 33 35 32 26 24 25 25 26 26 25 26 27 27 28
5 11 12 13 3 3 3 7 5 5 7 7 11 7 16 11 13 15 31 35 30 25 20 17 14 13 11 9 11 18 26 31 28 26 26 26 26 28 29 30 30 30 30 31
3 4 7 2 3 4 3 3 11 7 7 6 7 8 13 7 10 10 13 46 39 31 24 19 16 14 14 12 12 17 24 28 29 29 28 27 28 29 29 30 31 32 34 37
11 6 6 10 4 4 10 11 7 11 8 10 5 4 21 11 14 12 24 31 39 32 29 24 21 18 17 18 19 20 22 25 27 28 28 28 27 26 27 29 31 34 37 39
7 13 9 15 7 2 8 9 9 10 5 10 5 11 11 8 15 25 28 30 35 35 30 26 23 21 19 18 20 23 24 25 25 24 22 22 22 22 25 26 29 33 36 39
6 8 2 5 3 4 4 5 6 12 2 7 5 15 20 4 12 16 19 20 34 34 32 28 26 25 23 23 23 22 21 20 19 17 17 17 20 23 26 29 33 35 38 41
3 7 4 5 2 10 7 5 7 6 4 10 10 11 12 11 12 13 14 25 30 33 35 35 34 32 30 27 23 20 18 18 17 17 16 17 20 25 29 33 37 41 44 47
8 7 9 3 3 9 4 4 6 6 7 8 6 11 14 13 8 13 28 29 35 39 43 42 41 39 37 34 29 24 20 19 17 16 17 20 25 31 36 40 43 46 47 49
1 7 5 14 1 4 7 10 9 8 12 7 3 17 1 10 14 21 30 28 32 40 50 52 50 49 47 41 35 30 25 21 20 20 23 27 33 38 41 44 46 48 48 48
6 3 7 15 5 7 7 7 7 5 3 14 4 15 6 10 13 21 32 60 45 59 58 61 61 58 52 45 39 34 28 24 24 26 30 33 38 41 43 44 46 46 47 45
4 4 14 14 14 6 5 6 9 10 5 14 16 50 28 37 14 52 72 75 63 53 55 53 60 65 58 49 44 38 33 29 30 33 34 35 39 41 44 45 45 47 48 51
6 9 3 9 12 5 10 25 13 20 24 11 57 12 40 37 30 63 71 61 66 65 60 54 54 61 55 50 45 41 37 34 34 34 36 38 41 44 47 46 46 47 47 51
5 5 5 11 9 3 11 31 25 23 28 21 39 45 41 45 31 48 62 53 59 64 58 55 50 52 50 48 46 44 44 36 39 39 40 40 42 46 46 46 49 53 57 60
3 7 6 11 9 11 15 15 10 6 8 11 10 17 10 27 45 58 59 57 59 63 55 53 40 39 44 42 39 45 46 44 43 44 44 46 46 48 51 56 59 61 63 65
10 8 4 7 8 2 12 6 11 16 17 15 19 25 33 46 57 52 57 58 76 85 52 40 30 33 41 38 36 34 36 40 43 45 49 47 47 51 54 59 60 61 62 64
7 8 3 1 4 15 13 5 5 6 12 7 8 19 41 58 56 44 55 71 83 78 44 36 39 35 38 38 37 40 43 45 48 47 46 44 46 52 56 61 61 61 65 66
3 3 7 6 4 9 10 1 1 5 8 15 15 32 44 52 25 29 73 86 82 55 36 39 40 40 40 39 44 53 53 49 45 43 44 45 47 52 57 60 64 67 69 71
7 3 14 7 8 17 16 13 11 8 12 43 45 45 45 17 40 77 86 84 73 60 51 54 48 46 49 54 53 54 50 49 42 42 45 49 52 57 62 66 68 70 72 75
12 12 8 3 1 17 2 2 5 16 41 44 47 48 52 61 70 75 81 82 78 73 76 72 61 60 57 54 51 54 52 44 44 49 55 58 60 63 67 68 71 73 75 80
5 12 7 18 14 2 13 19 27 34 35 42 51 63 65 68 75 77 81 84 86 83 85 77 77 71 64 59 56 57 56 45 49 54 58 61 65 68 68 71 74 77 78 80
8 11 6 6 6 22 27 33 41 50 55 60 62 67 71 75 78 79 82 80 85 87 83 78 69 70 73 73 60 58 53 47 50 57 61 66 70 74 76 80 82 80 80 80
7 5 5 10 14 23 35 47 58 62 68 76 77 75 78 79 83 79 80 77 81 85 84 79 70 68 76 73 62 54 48 45 51 58 67 71 74 76 78 80 81 82 83 80
5 3 2 1 19 11 27 51 66 69 72 75 75 79 81 84 86 89 87 80 80 86 83 79 82 77 68 67 62 53 48 49 53 62 70 75 80 81 83 86 85 81 83 80
Wind_Direction_850mb
18 66 59 21 351 268 274 298 296 320 29 343 268 280 274 269 257 238 231 229 230 237 248 260 268 271 271 265 254 242 237 240 247 259 255 251 250 252 254 259 268 277 285 292
23 59 343 294 18 66 38 356 308 288 23 353 354 282 257 243 241 237 235 229 237 253 266 278 285 285 278 267 248 233 228 233 244 254 257 255 254 253 257 263 268 266 278 285
103 342 321 70 32 32 45 15 352 291 330 72 330 288 304 266 240 242 237 237 243 262 278 286 290 292 287 269 245 229 222 227 233 242 254 256 254 255 257 261 259 265 276 285
75 331 23 53 66 14 5 348 319 342 33 272 18 282 298 329 296 268 241 238 243 257 271 281 281 286 288 271 240 226 220 220 225 236 251 254 252 254 257 260 262 267 273 281
276 5 19 54 328 347 249 32 39 66 81 36 353 64 275 359 310 266 237 233 236 242 251 260 268 267 271 261 241 225 217 218 227 241 251 253 255 258 261 266 269 269 275 282
94 38 47 7 347 20 357 45 36 55 92 19 230 112 286 255 222 276 262 229 228 229 237 247 256 256 247 243 229 221 218 222 231 242 251 258 262 265 269 272 274 277 280 284
353 15 2 27 340 357 53 48 339 353 7 222 348 41 243 257 243 253 285 261 229 225 228 235 242 243 239 231 228 223 222 226 233 243 252 260 263 265 269 273 278 281 284 286
92 333 14 356 50 336 37 126 149 239 268 276 353 241 248 223 311 295 283 276 233 230 235 242 246 243 235 227 224 226 230 235 241 250 256 264 273 278 281 283 284 288 290 293
68 305 38 39 356 72 278 34 144 98 95 35 272 294 297 319 303 288 285 263 231 234 239 246 248 244 236 227 221 219 221 226 229 236 248 261 273 281 286 290 292 293 295 297
170 351 279 290 115 39 137 152 30 9 332 307 292 277 240 327 312 314 286 252 245 245 248 251 248 240 232 225 221 220 221 227 235 246 258 273 281 288 292 294 296 297 297 297
133 98 287 28 191 186 25 338 40 118 140 184 283 257 213 221 233 301 309 285 271 262 259 258 254 246 239 235 232 233 240 244 250 262 276 287 295 298 299 298 298 298 298 298
19 128 268 230 352 245 220 218 166 123 269 227 175 272 79 239 263 291 317 335 318 281 270 260 252 244 240 239 242 248 254 254 262 277 285 291 295 298 299 299 299 300 300 300
178 320 358 338 353 345 243 211 135 120 77 209 127 263 255 266 295 310 305 318 314 311 297 269 251 246 243 242 244 247 250 256 267 277 282 290 296 300 302 302 302 301 301 301
164 189 179 205 214 124 258 249 184 137 157 279 213 275 296 295 320 315 315 315 316 312 306 293 256 249 243 242 242 241 245 255 270 281 287 292 296 301 304 303 303 304 306 308
132 212 258 258 240 177 239 258 201 198 236 217 277 255 281 292 305 301 308 318 318 314 309 295 273 251 243 240 238 241 244 257 278 288 292 297 298 298 297 299 301 302 304 304
23 272 73 298 346 274 265 264 252 240 255 259 269 278 282 286 309 313 317 322 318 317 315 308 292 252 241 242 245 247 249 264 283 290 293 295 294 287 288 296 299 301 302 301
115 120 59 265 321 327 302 233 208 222 223 179 230 248 329 320 322 322 318 319 315 312 304 304 294 255 246 248 255 255 255 263 276 283 291 295 292 287 290 295 298 299 300 300
140 97 109 265 7 84 246 190 202 200 248 224 283 285 303 302 314 319 321 323 325 315 293 295 299 261 245 256 250 253 259 270 278 282 288 293 292 291 292 295 297 299 299 300
175 113 339 210 225 300 283 159 173 190 279 12 241 303 330 332 322 319 326 320 317 305 280 287 285 270 251 250 259 273 278 279 282 290 295 297 292 288 288 292 297 298 299 300
100 4 135 66 135 261 245 102 19 156 274 20 332 340 340 341 324 311 320 315 315 294 292 294 288 267 258 270 281 282 279 278 282 293 294 293 292 291 291 294 295 298 299 299
117 177 226 198 260 281 256 275 267 76 315 341 344 333 324 304 293 304 317 320 316 288 287 295 284 270 278 288 285 276 275 275 287 289 290 291 292 293 294 295 296 298 299 298
170 163 207 100 73 282 305 66 110 332 337 339 331 325 318 314 314 315 316 312 310 303 288 285 271 274 284 290 279 274 272 280 285 288 290 294 297 298 298 298 298 296 296 296
280 199 185 187 217 45 10 353 0 358 346 345 345 347 343 337 336 334 329 322 312 309 304 301 278 274 281 286 279 273 275 281 286 289 294 298 300 301 301 299 298 297 297 296
245 201 222 48 323 352 35 25 12 359 351 345 340 335 333 331 330 329 330 331 325 314 307 303 300 283 280 282 278 268 274 280 286 290 295 301 303 304 303 302 301 299 297 297
230 154 197 262 346 348 13 1 349 343 341 339 334 329 325 325 323 325 319 324 321 322 317 307 301 296 284 279 278 268 273 279 285 289 292 296 301 302 300 297 295 295 295 296
258 273 174 329 359 340 323 339 343 337 333 330 323 319 320 321 321 323 322 322 314 314 312 313 308 298 294 285 279 271 274 277 282 288 294 298 301 301 298 298 297 295 296 296